Content
SEND FEEDBACK

Daily
Averages
Monthly
Summary
United States of America

KANAB, UTAH


Home > North America > United States > Utah
Elevation: 4530 feet     Latitude: 37 06N     Longitude: 111 46W

WEATHER
 
SELECT A DAY
Number of Records: 197,737;   Date Range: 1/1/95 - 11/19/14
 
SHARE

PRINT THIS DATA

[ ← Previous Day ]
WEATHER ALMANAC - FEBRUARY 11, 2013
[ Next Day → ]
[ °C ]   °F
Weather ElementAverageHighLow
Temperature30.7 °F37.9 °F (3:53 pm)21.9 °F (7:53 am)
Dewpoint18.7 °F23 °F (8:53 pm)15.1 °F (7:53 am)
Humidity61.9 %78 % (1:53 am)45 % (3:53 pm)
Barometer30.08 in30.15 in (8:53 pm)30.00 in (1:53 am)
Wind Speed2.5 mph4.6 mph (1:53 am)
Weather ElementAverage
Visibility10 mi
Wind DirectionENE (77 °)

Weather ElementTotal
Precipitation---
Heating Degree Days35.1 (Base 65)
Averaged from 23 records on February 11, 2013
WEATHER CONDITIONS BREAKOUT
WIND DIRECTION BREAKOUT
WEATHER BY HOUR - FEBRUARY 11, 2013
[ °C ]   °F
Local TimeTemperatureDewpointHumidityBarometerVisibilityWind DirectionWind SpeedGust SpeedPrecipitationEventsConditions
1:53 AM27.0 °F21.0 °F78 %30.00 in10.0 miESE (110°)4.6 mphClear
2:53 AM24.1 °F18.0 °F77 %30.01 in10.0 miESE (120°)4.6 mphOvercast
3:53 AM25.0 °F17.1 °F72 %30.01 in10.0 miESE (120°)4.6 mphOvercast
4:53 AM27.0 °F18.0 °F69 %30.01 in10.0 miNW (310°)4.6 mphClear
5:53 AM25.0 °F18.0 °F75 %30.03 in10.0 miCalmMostly Cloudy
6:53 AM24.1 °F16.0 °F71 %30.04 in10.0 miSSE (150°)3.5 mphClear
7:53 AM21.9 °F15.1 °F75 %30.07 in10.0 miCalmClear
8:53 AM27.0 °F18.0 °F69 %30.07 in10.0 miCalmClear
9:53 AM30.0 °F17.1 °F59 %30.09 in10.0 miESE (110°)3.5 mphClear
10:53 AM30.9 °F18.0 °F59 %30.10 in10.0 miCalmClear
11:53 AM34.0 °F19.0 °F54 %30.09 in10.0 miVariable3.5 mphClear
12:53 PM35.1 °F19.0 °F52 %30.08 in10.0 miENE (70°)4.6 mphClear
1:53 PM36.0 °F21.0 °F55 %30.07 in10.0 miSE (130°)3.5 mphClear
2:53 PM37.0 °F19.9 °F50 %30.06 in10.0 miESE (120°)4.6 mphClear
3:53 PM37.9 °F18.0 °F45 %30.06 in10.0 miVariable3.5 mphClear
4:53 PM37.9 °F18.0 °F45 %30.06 in10.0 miCalmClear
5:53 PM36.0 °F19.9 °F52 %30.08 in10.0 miSE (130°)3.5 mphClear
6:53 PM34.0 °F21.0 °F59 %30.11 in10.0 miSE (130°)4.6 mphClear
7:53 PM33.1 °F21.0 °F61 %30.14 in10.0 miCalmPartly Cloudy
8:53 PM30.9 °F23.0 °F72 %30.15 in10.0 miCalmClear
9:53 PM30.9 °F19.0 °F61 %30.14 in10.0 miCalmClear
10:53 PM30.9 °F19.0 °F61 %30.15 in10.0 miWest (270°)4.6 mphClear
11:53 PM30.9 °F15.1 °F52 %30.15 in10.0 miCalmClear
Hourly data recorded from KPGA, located miles away from Kanab, Utah







STORIES FROM OUR PARTNERS